Regional Weather Roundup
Issued by NWS

Home | Current Version | Previous Version | Graphics & Text | Print | Product List | Glossary On
Versions: 1 2 3 4 5 6 7 8 9 10 11 12 13 14 15 16 17 18 19 20 21 22 23 24 25 26 27 28 29 30 31 32 33 34 35 36 37 38 39 40 41 42 43 44 45 46 47 48 49 50
000
ASUS43 KIND 300109
RWRIN

WEATHER ROUNDUP FOR INDIANA
NATIONAL WEATHER SERVICE INDIANAPOLIS IN
800 PM EST THU JAN 29 2015

NOTE: "FAIR" INDICATES FEW OR NO CLOUDS BELOW 12,000 FEET WITH NO
SIGNIFICANT WEATHER AND/OR OBSTRUCTIONS TO VISIBILITY.

* - STATION DOES NOT REPORT WEATHER SUCH AS PRECIPITATION OR FOG.

+ - STATION NOT QUALITY CONTROLLED BY THE NATIONAL WEATHER SERVICE.
    USE DATA WITH CAUTION...ESPECIALLY DEWPOINT AND RELATIVE
    HUMIDITY OBSERVATIONS.

INZ001>003-010>013-019-020-300200-
NORTHWEST INDIANA

CITY           SKY/WX    TMP DP  RH WIND       PRES   REMARKS
GARY /AIRPORT/ CLOUDY    37  21  52 NW9G32    30.18R
KNOX *+        CLOUDY    32  19  59 NW10      30.14R WCI  24
LA PORTE +     CLOUDY    35  29  80 NW12      30.14R WCI  26
MICHIGAN CITY+ CLOUDY    34  23  64 NW9G23    30.15R WCI  26
MONTICELLO +   CLOUDY    32  30  92 W9        30.16R WCI  25
RENSSELAER +   CLOUDY    34  32  93 NW13      30.18R WCI  25
VALPARAISO     CLOUDY    34  26  72 NW10      30.16R WCI  26

$$

LMZ046-743>745-300200-
SOUTHERN LAKE MICHIGAN

STATION/POSITION TIME  TEMP WIND        PRES
                       AIR  DIR/SP/G
                 (UTC) (F)  (DEG/KT/KT) (MB)
MICHIGAN CITY    0100   34  290/ 17/ 20   N/A

$$

INZ004-005-014>016-021>024-300200-
NORTH CENTRAL INDIANA

CITY           SKY/WX    TMP DP  RH WIND       PRES   REMARKS
ELKHART        CLOUDY    32  25  74 NW9       30.10R WCI  24
GOSHEN         CLOUDY    33  27  78 NW17G25   30.09R WCI  22
LOGANSPORT +   CLOUDY    32  30  93 W9        30.16R WCI  24
PERU/GRISSOM   CLOUDY    32  29  89 NW12      30.13R WCI  23
ROCHESTER +    MOCLDY    34  32  93 NW10      30.13R WCI  26
SOUTH BEND     CLOUDY    35  26  69 NW18      30.12R WCI  24
WARSAW +       CLOUDY    32  30  93 NW13G23   30.09R WCI  22

$$

INZ006>009-017-018-025>027-300200-
NORTHEAST INDIANA

CITY           SKY/WX    TMP DP  RH WIND       PRES   REMARKS
ANGOLA *+      CLOUDY    32  27  80 NW13      30.03R WCI  22
AUBURN +       CLOUDY    32  28  86 NW14G24   30.06R WCI  22
FORT WAYNE     LGT SNOW  33  30  88 NW10      30.08R FOG     WCI  25
HUNTINGTON +   MIX PCPN  32  28  85 NW9       30.09R WCI  24

$$

INZ028-029-035-036-043>045-051>053-300200-
WEST CENTRAL INDIANA

CITY           SKY/WX    TMP DP  RH WIND       PRES   REMARKS
CRAWFORDSVL +  CLOUDY    31  26  80 NW14G20   30.18R WCI  21
GREENCASTLE +  CLOUDY    32  28  86 NW7       30.19R WCI  26
LAFAYETTE      CLOUDY    33  29  85 W12       30.18R WCI  24
TERRE HAUTE    CLOUDY    35  30  82 NW12      30.23R WCI  27

$$

INZ030>032-037>040-046>048-054>057-064-065-300200-
CENTRAL INDIANA

CITY           SKY/WX    TMP DP  RH WIND       PRES   REMARKS
CP ATTERBURY + CLOUDY    34  30  86 NW13      30.18R WCI  25
COLUMBUS       CLOUDY    32  28  86 NW9       30.18R WCI  24
GREENWOOD *+   CLOUDY    34  27  75 NW8G23    30.17R WCI  27
INDIANAPOLIS   CLOUDY    30  28  92 NW12      30.17R WCI  20
-EAGLE CREEK   CLOUDY    32  29  88 NW14      30.16R WCI  22
KOKOMO *+      CLOUDY    32  28  86 NW17      30.13R WCI  21
MARION +       CLOUDY    32  30  95 NW14      30.12R FOG     WCI  22
MT COMFORT *+  CLOUDY    32  32 100 NW14G21   30.15R WCI  22
SHELBYVILLE    CLOUDY    35  28  75 NW13      30.15R WCI  26
ZIONSVILLE +   CLOUDY    32  28  86 NW9       30.15R FOG     WCI  24

$$

INZ033-034-041-042-049-050-058-059-300200-
EAST CENTRAL INDIANA

CITY           SKY/WX    TMP DP  RH WIND       PRES   REMARKS
MUNCIE         CLOUDY    32  29  88 NW15G25   30.11R FOG     WCI  22

$$

INZ060-061-067>069-081>083-085>088-300200-
SOUTHWEST INDIANA

CITY           SKY/WX    TMP DP  RH WIND       PRES   REMARKS
EVANSVILLE     CLOUDY    39  34  82 NW9       30.28R
HUNTINGBURG *+ CLOUDY    37  28  70 NW12G18   30.24R
WASHINGTON +   CLOUDY    35  31  84 NW15G23   30.24R WCI  26

$$

INZ062-063-066-070>080-084-089>092-300200-
SOUTH CENTRAL AND SOUTHEAST INDIANA

CITY           SKY/WX    TMP DP  RH WIND       PRES   REMARKS
BLOOMINGTON    CLOUDY    34  31  88 NW8       30.19R WCI  27
NORTH VERNON + CLOUDY    34  34 100 NW10G17   30.16  WCI  26
SEYMOUR +      CLOUDY    36  32  87 NW8       30.18R

$$




USA.gov is the U.S. government's official web portal to all federal, state and local government web resources and services.